Location: Newark
(48.1500°N, 2.9667°W)
Time: 04:03:48
(UTC+00:00)

Explorer 7 - Visible Passes

Search period start: 21 January 2020 00:00
Search period end: 31 January 2020 00:00
Orbit: 485 x 679 km, 50.3° (Epoch: 20 January)

Date Brightness Start Highest point End Pass type
(mag) Time Alt. Az. Time Alt. Az. Time Alt. Az.
21 Jan 8.4 04:59:02 32° ESE 04:59:02 32° ESE 05:01:21 10° ESE visible
21 Jan 8.1 06:35:21 18° W 06:37:26 27° SW 06:41:01 10° SSE visible
22 Jan 8.3 05:03:55 31° SE 05:03:55 31° SE 05:06:13 10° ESE visible
22 Jan 8.6 06:40:15 13° WSW 06:42:11 18° SW 06:45:04 10° S visible
23 Jan 8.5 05:08:52 27° SSE 05:08:52 27° SSE 05:10:58 10° SE visible
23 Jan 9.0 06:45:25 10° WSW 06:46:52 12° SW 06:48:20 10° SSW visible
24 Jan 8.8 05:13:54 20° SSE 05:13:54 20° SSE 05:15:33 10° SSE visible
25 Jan 9.1 05:19:00 14° S 05:19:00 14° S 05:19:51 10° SSE visible
